Evansville, IN

5:48 AM CDT on August 24, 2017 (GMT -0500)
Evansville Regional

Weather History for KEVV - February, 2015

Change the Weather History Date:

Thursday, February 12, 2015

  Actual Average Record
Temperature  
Mean Temperature 26 °F 36 °F  
Max Temperature 31 °F 45 °F 72 °F (1938)
Min Temperature 21 °F 26 °F -11 °F (1899)
Degree Days  
Heating Degree Days 39 29  
Month to date heating degree days 350 367  
Since 1 July heating degree days 3117 3146  
Cooling Degree Days 0 0  
Month to date cooling degree days 0 0  
Year to date cooling degree days 0 0  
Moisture  
Dew Point 11 °F    
Average Humidity 58    
Maximum Humidity 69    
Minimum Humidity 46    
Precipitation  
Precipitation T in 0.11 in 1.52 in (1950)
Month to date precipitation 0.67 1.40  
Year to date precipitation 3.64 4.50  
Snow  
Snow T in 0.20 in 5.40 in (1971)
Month to date snowfall 0.2 1.8  
Since 1 July snowfall 2.8 8.7  
Snow Depth 0.00 in    
Sea Level Pressure  
Sea Level Pressure 30.39 in    
Wind  
Wind Speed 13 mph (NNW)    
Max Wind Speed 26 mph    
Max Gust Speed 34 mph    
Visibility 9 miles    
Events Snow    
T = Trace of Precipitation, MM = Missing Value Source: NWS Daily Summary

Daily Weather History Graph

Daily Weather History Graph

Search for Another Location

Airport or City:

Trip Planner

Search our weather history database for the weather conditions in past years. The results will help you decide how hot, cold, wet, or windy it might be!

Date:

Astronomy

Feb. 12, 2015 Rise Set
Actual Time 6:43 AM CST 5:25 PM CST
Civil Twilight 6:16 AM CST 5:52 PM CST
Nautical Twilight 5:45 AM CST 6:23 PM CST
Astronomical Twilight 5:15 AM CST 6:54 PM CST
Moon 12:45 AM CST (2/12) 11:22 AM CST (2/12)
Length of Visible Light 11h 35m
Length of Day
10h 41m
Last Quarter, 44% of the Moon is Illuminated
Feb 12
Last Quarter
Feb 18
New
Feb 25
First Quarter
Mar 5
Full
Mar 13
Last Quarter

Hourly Weather History & Observations

Time (CST) Temp. Windchill Dew Point Humidity Pressure Visibility Wind Dir Wind Speed Gust Speed Precip Events Conditions
12:17 AM 30.0 °F 21.7 °F 19.9 °F 66% 30.19 in 10.0 mi NW 9.2 mph - N/A   Mostly Cloudy
12:54 AM 30.0 °F 20.0 °F 19.9 °F 66% 30.20 in 10.0 mi NW 12.7 mph 21.9 mph N/A   Overcast
1:54 AM 30.0 °F 21.7 °F 19.0 °F 64% 30.19 in 10.0 mi WNW 9.2 mph 17.3 mph N/A   Overcast
2:54 AM 28.4 °F 17.5 °F 17.6 °F 64% 30.18 in 10.0 mi WNW 13.8 mph 18.4 mph N/A   Overcast
3:54 AM 28.0 °F 18.6 °F 17.1 °F 63% 30.19 in 10.0 mi NW 10.4 mph 19.6 mph N/A   Overcast
4:54 AM 28.0 °F 16.1 °F 15.1 °F 58% 30.23 in 10.0 mi NW 16.1 mph 25.3 mph N/A   Overcast
5:54 AM 26.6 °F 14.7 °F 12.2 °F 55% 30.26 in 9.0 mi NNW 15.0 mph 31.1 mph N/A   Overcast
6:54 AM 23.0 °F 8.7 °F 14.0 °F 68% 30.32 in 4.0 mi North 18.4 mph 32.2 mph 0.00 in Snow Light Snow
7:10 AM 23.0 °F 9.2 °F 14.0 °F 68% 30.32 in 4.0 mi NNW 17.3 mph 23.0 mph 0.00 in Snow Light Snow
7:49 AM 21.2 °F 6.0 °F 12.2 °F 68% 30.36 in 1.8 mi NNW 19.6 mph 27.6 mph 0.00 in Snow Light Snow
7:54 AM 21.0 °F 7.6 °F 10.0 °F 63% 30.38 in 2.0 mi NNW 15.0 mph 34.5 mph 0.00 in Snow Light Snow
8:05 AM 21.0 °F 7.1 °F 10.0 °F 63% 30.37 in 7.0 mi NNW 16.1 mph 29.9 mph 0.00 in Snow Light Snow
8:13 AM 21.9 °F 8.7 °F 8.1 °F 55% 30.37 in 10.0 mi NNW 15.0 mph 27.6 mph 0.00 in   Overcast
8:54 AM 21.9 °F 9.2 °F 7.0 °F 53% 30.41 in 10.0 mi NNW 13.8 mph 24.2 mph 0.00 in   Partly Cloudy
9:28 AM 21.9 °F 6.5 °F 8.1 °F 55% 30.41 in 10.0 mi NNW 20.7 mph 28.8 mph N/A   Mostly Cloudy
9:54 AM 21.9 °F 7.8 °F 8.1 °F 55% 30.44 in 10.0 mi NNW 17.3 mph 26.5 mph N/A   Overcast
10:54 AM 23.0 °F 8.7 °F 10.0 °F 58% 30.45 in 10.0 mi North 18.4 mph 25.3 mph N/A   Overcast
11:54 AM 26.1 °F 13.6 °F 10.0 °F 51% 30.45 in 10.0 mi NNW 16.1 mph 21.9 mph 0.00 in   Mostly Cloudy
12:54 PM 25.0 °F 12.6 °F 9.0 °F 51% 30.45 in 10.0 mi NW 15.0 mph 23.0 mph N/A   Mostly Cloudy
1:54 PM 26.1 °F 14.5 °F 8.1 °F 47% 30.46 in 10.0 mi NW 13.8 mph 21.9 mph N/A   Overcast
2:54 PM 25.0 °F 12.6 °F 8.1 °F 49% 30.46 in 10.0 mi WNW 15.0 mph 23.0 mph N/A   Overcast
3:54 PM 27.0 °F 15.2 °F 8.1 °F 45% 30.46 in 10.0 mi WNW 15.0 mph 20.7 mph N/A   Mostly Cloudy
4:54 PM 26.1 °F 15.0 °F 8.1 °F 47% 30.49 in 10.0 mi NW 12.7 mph 23.0 mph N/A   Overcast
5:54 PM 24.1 °F 15.2 °F 7.0 °F 48% 30.49 in 10.0 mi NW 8.1 mph - N/A   Mostly Cloudy
6:54 PM 23.0 °F 12.4 °F 8.1 °F 53% 30.51 in 10.0 mi NNW 10.4 mph - N/A   Partly Cloudy
7:54 PM 23.0 °F 11.7 °F 8.1 °F 53% 30.50 in 10.0 mi North 11.5 mph - N/A   Clear
8:54 PM 21.9 °F 11.7 °F 8.1 °F 55% 30.50 in 10.0 mi North 9.2 mph - N/A   Clear
9:54 PM 21.9 °F 10.4 °F 7.0 °F 53% 30.49 in 10.0 mi North 11.5 mph - N/A   Clear
10:54 PM 21.0 °F 10.6 °F 7.0 °F 55% 30.49 in 10.0 mi North 9.2 mph - N/A   Clear
11:54 PM 21.0 °F 12.4 °F 7.0 °F 55% 30.48 in 10.0 mi North 6.9 mph - N/A   Clear